Location: Borovka
(49.7741°N, 14.5280°E)
Time: 00:56:54
(UTC+00:00)

CZ-2D R/B - Visible Passes

Search period start: 13 February 2026 00:00
Search period end: 23 February 2026 00:00
Orbit: 525 x 595 km, 98.0° (Epoch: 11 February)

Date Brightness Start Highest point End Pass type
(mag) Time Alt. Az. Time Alt. Az. Time Alt. Az.
13 Feb 6.5 05:40:22 10° NE 05:43:40 22° E 05:46:59 10° SE visible
13 Feb 5.1 18:05:30 10° SSW 18:09:05 34° W 18:12:47 10° NNW visible
14 Feb 6.5 05:39:13 10° NE 05:42:30 22° E 05:45:46 10° SE visible
14 Feb 5.0 18:04:16 10° SSW 18:07:54 35° W 18:11:38 10° NNW visible
15 Feb 5.0 18:03:02 10° SSW 18:06:42 37° W 18:10:28 10° NNW visible
16 Feb 6.6 05:36:56 10° NE 05:40:07 21° E 05:43:17 10° SE visible
16 Feb 4.9 18:01:48 10° SSW 18:05:30 38° W 18:09:18 10° NNW visible
17 Feb 6.6 05:35:47 10° NE 05:38:54 20° E 05:42:02 10° SE visible
17 Feb 4.8 18:00:34 10° SSW 18:04:17 39° W 18:08:08 10° NNW visible
18 Feb 4.8 17:59:19 10° S 18:03:04 41° W 18:06:57 10° NNW visible
19 Feb 4.7 17:58:04 10° S 18:01:51 42° W 18:05:46 10° NNW visible
20 Feb 6.7 05:32:17 10° NE 05:35:15 18° E 05:38:12 10° SE visible
20 Feb 4.6 17:56:48 10° S 18:00:37 44° W 18:04:34 10° NNW visible
21 Feb 4.6 17:55:32 10° S 17:59:23 45° W 18:03:21 10° NNW visible
22 Feb 4.5 17:54:16 10° S 17:58:09 47° W 18:02:09 10° NNW visible
